Wind_Speed
29 30 37 34 33 33 33 34 34 32 36 34 40 42 42 38 39 39 36 32 29 30 29 30 26 27 24 27 30 33 33 33 33 34 35 34 35 34 34 33 34 36 36 38
34 38 35 35 33 36 33 32 34 34 35 37 43 51 49 45 38 34 33 34 32 29 30 29 25 18 19 24 30 34 34 35 35 36 35 36 35 35 34 34 35 35 35 37
39 41 39 37 28 26 29 31 32 36 37 44 42 48 32 35 37 39 31 28 26 22 25 27 23 16 18 22 27 31 34 36 37 37 36 36 36 36 35 35 35 35 35 39
33 38 36 37 31 31 29 29 32 34 34 24 25 30 38 39 34 29 17 15 21 21 26 28 24 19 20 25 29 32 36 37 37 36 36 36 37 38 36 36 36 36 37 41
35 30 24 23 26 28 29 29 32 32 31 33 28 24 34 31 33 17 11 20 21 26 31 27 26 24 23 31 35 34 37 39 36 33 35 39 40 39 38 37 37 37 39 41
32 31 24 24 28 26 28 26 30 31 31 15 32 30 14 21 20 18 28 19 22 28 31 27 31 26 24 33 42 40 36 37 34 34 36 40 41 40 39 40 40 41 41 42
33 35 34 34 33 34 32 25 10 9 8 17 26 24 38 38 37 31 29 23 26 28 31 30 29 30 27 32 45 44 36 33 37 39 43 41 41 41 41 42 43 43 43 46
21 23 29 32 31 30 24 21 11 14 15 28 32 19 31 27 21 32 33 28 26 28 22 28 29 33 32 36 48 47 40 33 38 43 40 39 40 41 42 42 43 44 46 48
30 34 32 34 32 26 23 23 30 23 31 19 27 41 40 37 30 27 25 18 15 17 28 27 27 31 34 39 52 49 41 37 38 37 37 39 41 42 42 42 44 45 47 49
36 29 29 27 32 30 29 27 9 13 7 19 39 50 41 32 25 18 20 19 18 26 32 29 31 30 36 46 58 49 40 38 36 36 37 38 40 41 41 42 45 45 47 50
34 36 38 40 43 47 37 34 24 22 22 10 20 19 4 6 32 36 28 26 27 30 28 35 35 42 48 58 59 46 42 39 38 36 35 36 39 40 42 44 45 46 47 50
34 27 31 41 41 42 36 40 38 26 14 34 27 58 15 17 24 49 37 31 27 32 45 42 43 50 61 60 55 48 45 40 40 37 35 35 37 40 42 44 45 46 47 48
35 27 20 35 37 35 30 38 42 43 43 59 17 66 42 46 48 48 59 61 57 56 60 52 56 61 61 60 53 48 45 42 40 37 35 35 38 41 43 44 44 45 46 44
37 40 39 38 37 11 20 25 31 44 45 45 49 64 79 75 75 70 66 66 65 72 72 72 67 64 58 53 48 46 44 42 40 37 36 37 39 42 42 43 43 44 42 40
37 37 43 55 61 58 52 41 51 59 55 48 69 54 68 79 80 75 68 63 78 79 76 61 55 54 51 47 43 42 42 41 39 37 38 38 40 42 42 42 40 39 38 39
46 52 48 61 68 69 56 46 64 69 78 65 59 62 85 79 73 75 68 63 65 64 58 57 51 46 45 41 41 42 42 41 37 37 39 39 41 41 40 38 37 36 37 40
45 41 34 42 50 40 32 67 63 67 68 70 67 72 60 65 64 59 61 64 64 58 50 49 42 38 39 38 37 36 35 34 35 37 39 40 40 39 36 36 35 35 36 39
49 43 44 32 25 16 56 51 58 65 61 56 60 53 46 51 50 53 57 59 50 42 38 37 31 32 31 29 29 32 33 33 34 37 39 39 38 35 33 33 33 33 36 40
58 54 35 23 33 32 18 43 48 58 55 36 47 53 55 58 56 55 49 37 30 30 31 28 27 23 25 29 34 33 34 34 35 37 37 36 34 31 31 31 30 31 34 40
53 62 55 29 13 15 41 54 52 52 28 55 61 55 53 48 52 49 36 32 34 33 32 27 29 29 33 33 33 34 35 35 36 38 36 33 30 30 29 28 26 30 36 39
31 43 53 55 44 35 45 56 50 28 56 62 56 46 47 40 40 38 48 40 39 38 37 35 33 36 38 40 40 36 34 36 37 37 34 31 29 27 26 24 24 30 34 39
47 29 33 44 37 29 58 51 56 70 63 58 48 44 50 44 44 45 47 47 42 45 46 47 43 39 42 41 43 39 37 36 38 36 32 28 25 25 21 21 26 30 35 39
55 61 62 61 54 62 53 57 59 55 55 50 47 49 52 51 51 51 53 52 54 50 51 51 53 50 49 45 45 40 38 37 36 33 28 24 23 21 19 20 25 29 33 39
51 57 59 62 64 63 56 53 53 50 51 48 49 53 56 60 61 60 54 48 54 50 51 53 53 61 53 44 45 42 39 34 33 28 24 22 21 20 18 18 23 28 32 39
36 34 37 33 38 54 53 49 49 49 49 55 58 61 60 59 59 66 56 50 53 52 54 50 54 60 55 53 47 44 38 36 29 26 23 21 20 19 16 17 21 25 32 40
76 68 60 61 60 56 56 53 49 50 47 47 55 62 60 61 67 57 55 56 54 53 56 57 54 57 56 57 48 40 39 32 29 24 22 21 21 17 15 17 19 25 31 38
Wind_Direction
272 270 272 283 286 277 274 272 274 281 287 284 291 291 296 298 296 300 302 291 283 284 271 266 271 281 282 284 284 280 277 273 271 272 273 278 282 288 292 295 297 299 301 304
267 269 282 281 279 268 265 265 273 283 287 289 291 290 294 298 296 299 304 298 292 280 263 261 269 268 289 293 290 285 281 276 274 273 276 280 284 287 290 293 295 298 300 302
265 272 275 276 274 262 255 262 275 280 287 290 291 291 297 296 296 304 304 299 277 269 263 250 258 261 299 308 297 289 280 275 273 274 277 279 283 285 288 290 293 295 299 303
268 269 271 265 260 256 259 275 275 278 283 278 288 289 287 293 294 297 308 299 280 257 279 251 253 263 300 316 312 297 288 279 275 276 280 283 283 284 287 289 293 298 300 301
263 265 255 254 261 255 257 272 277 277 275 279 280 274 284 285 282 291 295 296 272 274 278 260 263 260 289 316 321 312 294 284 279 280 283 284 283 284 287 289 292 294 291 293
254 247 247 263 261 253 265 271 275 279 281 262 277 247 288 280 283 282 293 291 271 269 266 269 270 258 281 315 319 318 304 284 275 280 287 286 283 284 287 288 289 288 290 297
263 253 251 262 261 260 263 263 287 266 249 267 284 272 267 279 281 281 294 279 273 259 267 268 269 253 279 304 319 320 306 284 275 279 287 283 280 281 282 284 287 291 295 299
257 263 261 264 264 252 260 238 216 274 282 289 288 259 283 288 286 292 284 284 266 260 265 270 268 257 273 300 314 318 307 288 281 283 282 277 276 276 279 284 288 292 295 298
252 260 262 266 267 250 254 236 258 257 277 287 270 273 283 287 285 288 288 273 260 256 291 273 265 286 279 299 312 315 304 292 287 284 278 274 274 276 281 286 288 290 294 299
258 261 271 265 261 249 245 258 215 214 271 270 281 289 285 284 282 264 295 279 272 281 281 283 267 277 288 300 311 311 304 294 287 281 276 273 275 277 282 284 287 290 295 300
252 247 254 255 254 257 247 239 235 245 245 266 281 275 268 240 290 289 294 293 282 283 283 291 278 289 291 301 307 306 302 293 286 281 276 274 274 277 279 282 286 291 296 301
255 244 239 254 260 262 249 249 247 232 238 247 258 272 279 282 269 290 285 287 277 279 297 289 283 287 295 303 306 302 297 289 286 281 276 273 273 275 278 282 287 292 298 302
250 236 242 259 260 255 247 247 250 253 254 251 228 260 269 277 282 281 284 286 286 289 291 284 286 292 299 302 299 295 289 284 281 279 276 272 271 273 277 282 287 294 298 299
250 243 236 242 246 235 233 251 263 255 241 253 244 254 275 281 282 284 285 289 294 300 297 295 295 300 296 295 291 287 284 282 280 278 274 270 270 272 277 281 287 294 297 300
241 234 241 246 252 255 259 266 262 256 256 249 259 264 268 278 282 284 282 281 294 293 293 296 296 295 292 289 284 283 281 278 277 274 271 268 269 272 275 281 289 294 297 305
249 249 246 248 251 259 261 255 252 259 262 259 260 268 271 280 290 288 292 293 294 294 297 297 295 293 290 280 277 277 275 273 271 269 266 264 265 269 275 283 290 295 302 311
251 244 237 241 249 245 253 247 254 262 261 259 264 274 290 287 289 293 296 294 292 298 296 292 290 288 278 271 270 273 273 269 265 263 260 260 263 268 276 285 291 297 306 315
250 240 238 250 251 229 244 263 266 266 270 272 272 282 289 292 301 303 296 292 298 298 291 278 273 274 270 271 272 276 277 271 264 260 258 259 263 269 278 286 292 298 310 316
248 242 235 229 229 240 240 252 254 252 261 277 279 288 297 302 290 293 299 301 299 301 295 277 269 262 275 280 278 276 277 271 264 260 258 258 261 269 278 283 290 301 315 322
246 244 229 229 230 234 246 261 268 261 255 276 281 284 295 302 291 304 315 305 300 299 290 282 270 269 281 290 294 282 277 269 265 257 254 255 259 267 273 280 290 305 316 325
228 224 224 233 243 248 246 263 256 225 256 283 288 286 289 285 292 306 306 303 300 300 296 274 269 279 276 279 286 287 277 268 258 251 248 250 257 263 272 282 295 309 321 327
230 221 222 231 240 245 253 250 237 268 285 279 277 277 285 290 291 294 299 299 292 294 293 286 283 273 273 277 275 280 270 264 252 243 243 247 252 263 273 283 300 315 322 330
237 240 246 239 244 259 264 263 267 272 275 271 270 284 285 287 288 303 306 303 301 297 298 293 283 271 270 270 269 267 253 250 239 237 238 239 251 262 270 288 306 320 326 331
249 258 252 255 255 255 254 263 267 270 269 270 272 278 284 287 290 294 300 301 299 291 298 293 280 276 278 263 261 253 240 236 229 232 232 240 249 260 270 294 314 322 331 333
274 287 273 269 259 252 247 253 259 259 262 264 273 278 281 284 282 288 287 294 290 285 290 296 283 273 274 259 261 247 238 226 221 223 234 241 251 258 272 301 313 328 331 332
267 270 276 276 277 277 278 278 270 267 269 276 277 278 277 275 281 285 282 290 285 281 286 290 284 277 263 256 253 238 224 214 210 218 227 240 249 254 275 297 313 330 332 333
Height
3152 3152 3147 3149 3148 3145 3142 3139 3136 3135 3131 3128 3124 3118 3119 3122 3117 3113 3112 3108 3105 3103 3102 3099 3099 3097 3095 3094 3092 3090 3089 3089 3088 3087 3086 3085 3084 3083 3082 3079 3077 3074 3072 3068
3145 3141 3143 3140 3138 3136 3135 3133 3129 3128 3125 3119 3116 3106 3108 3110 3110 3107 3104 3101 3096 3093 3092 3092 3092 3091 3090 3088 3086 3084 3082 3080 3079 3078 3077 3077 3076 3075 3073 3070 3067 3066 3064 3061
3135 3135 3134 3132 3131 3127 3127 3127 3125 3122 3119 3112 3105 3092 3096 3097 3097 3099 3096 3090 3087 3086 3085 3084 3084 3084 3083 3082 3079 3077 3074 3072 3070 3069 3069 3068 3067 3066 3065 3062 3060 3058 3055 3051
3125 3125 3125 3123 3123 3123 3122 3120 3119 3116 3114 3108 3105 3073 3086 3087 3084 3086 3087 3084 3081 3080 3078 3077 3077 3077 3075 3073 3071 3069 3065 3063 3062 3061 3060 3059 3057 3056 3054 3052 3051 3048 3046 3043
3117 3116 3116 3116 3117 3116 3114 3114 3112 3109 3106 3098 3098 3088 3069 3077 3074 3077 3078 3077 3075 3073 3070 3070 3070 3068 3067 3065 3063 3061 3057 3054 3053 3052 3051 3049 3047 3046 3043 3043 3042 3041 3038 3034
3110 3110 3110 3111 3110 3110 3107 3108 3106 3102 3101 3087 3084 3080 3063 3068 3068 3069 3070 3069 3067 3065 3063 3063 3062 3061 3060 3059 3056 3054 3050 3046 3045 3043 3041 3039 3037 3034 3033 3030 3029 3027 3026 3024
3105 3103 3104 3104 3105 3103 3103 3103 3103 3094 3091 3069 3074 3065 3051 3059 3062 3061 3060 3061 3058 3056 3056 3055 3054 3053 3051 3050 3048 3044 3040 3037 3036 3034 3032 3029 3026 3024 3022 3019 3018 3017 3016 3013
3099 3097 3098 3095 3096 3095 3093 3096 3098 3087 3080 3057 3065 3039 3041 3048 3051 3051 3048 3049 3048 3049 3048 3047 3047 3045 3043 3041 3038 3034 3031 3028 3026 3024 3020 3018 3015 3013 3012 3010 3009 3007 3005 3004
3090 3085 3089 3089 3086 3090 3085 3087 3087 3086 3077 3064 3040 3030 3033 3039 3039 3039 3039 3040 3040 3042 3042 3041 3039 3038 3036 3033 3029 3025 3021 3017 3015 3013 3010 3006 3004 3003 3002 3001 3000 2997 2994 2991
3079 3080 3079 3079 3079 3077 3080 3077 3079 3082 3077 3061 3012 3018 3021 3027 3025 3031 3033 3034 3037 3036 3034 3033 3031 3029 3026 3022 3018 3014 3010 3007 3004 3001 2998 2996 2995 2994 2994 2992 2989 2986 2983 2980
3071 3072 3069 3065 3059 3064 3069 3066 3069 3070 3066 3060 3041 3000 3011 3018 3020 3024 3026 3027 3027 3027 3026 3025 3022 3019 3016 3012 3008 3004 2999 2995 2992 2990 2987 2986 2985 2985 2984 2981 2978 2976 2974 2969
3062 3060 3057 3053 3051 3049 3054 3054 3056 3055 3051 3046 3047 2986 3003 3007 3011 3013 3014 3015 3015 3016 3015 3011 3009 3006 3003 2999 2994 2990 2986 2982 2980 2979 2977 2976 2975 2975 2974 2972 2970 2966 2963 2960
3052 3048 3049 3042 3040 3035 3037 3040 3043 3043 3041 3015 3037 2978 3004 3001 3004 3007 3001 3003 3003 3003 3001 2999 2996 2992 2988 2984 2980 2976 2972 2969 2967 2966 2967 2966 2965 2964 2964 2963 2960 2956 2953 2950
3037 3035 3032 3028 3020 3024 3027 3029 3030 3029 3020 3008 3005 2992 2976 2987 2988 2990 2991 2989 2984 2982 2981 2981 2978 2976 2973 2968 2963 2961 2958 2956 2954 2954 2954 2954 2954 2954 2954 2952 2950 2947 2943 2939
3022 3018 3019 3014 3012 3013 3016 3019 3016 3003 3001 3005 2981 2995 2982 2972 2974 2977 2977 2976 2972 2969 2963 2964 2962 2960 2957 2952 2949 2947 2944 2943 2942 2942 2942 2942 2943 2943 2943 2942 2942 2938 2933 2929
3007 2998 3005 2998 2997 3000 3003 3006 2992 2991 2978 2981 2980 2976 2966 2970 2963 2963 2954 2958 2953 2950 2950 2944 2944 2943 2940 2936 2934 2932 2930 2930 2930 2930 2931 2931 2932 2933 2934 2933 2931 2928 2923 2918
2992 2990 2991 2979 2980 2990 2990 2969 2977 2961 2965 2963 2958 2952 2957 2951 2950 2948 2936 2942 2938 2933 2932 2929 2927 2926 2923 2922 2921 2919 2918 2917 2917 2918 2919 2921 2922 2923 2924 2922 2920 2918 2914 2908
2974 2977 2980 2970 2976 2965 2947 2962 2959 2947 2948 2950 2947 2942 2941 2935 2935 2935 2924 2924 2922 2919 2916 2913 2913 2911 2911 2911 2910 2908 2905 2904 2904 2905 2907 2910 2912 2913 2913 2912 2910 2907 2904 2898
2955 2961 2959 2957 2949 2942 2943 2940 2942 2930 2928 2940 2932 2932 2926 2923 2927 2915 2917 2915 2912 2909 2906 2903 2903 2901 2902 2901 2900 2898 2894 2894 2893 2894 2896 2898 2901 2904 2904 2902 2901 2898 2893 2886
2938 2942 2942 2940 2932 2923 2923 2931 2933 2928 2926 2922 2921 2916 2917 2916 2911 2906 2910 2907 2905 2902 2899 2896 2896 2895 2893 2892 2892 2889 2886 2885 2884 2883 2885 2889 2892 2894 2894 2893 2892 2888 2883 2876
2920 2921 2920 2917 2913 2906 2910 2918 2918 2915 2893 2907 2908 2906 2905 2902 2901 2902 2897 2897 2896 2892 2890 2886 2884 2885 2884 2882 2881 2881 2878 2877 2875 2875 2877 2880 2882 2885 2885 2884 2882 2879 2874 2867
2898 2902 2902 2904 2897 2890 2895 2903 2896 2880 2884 2889 2894 2895 2892 2893 2892 2891 2887 2885 2884 2882 2879 2877 2873 2870 2870 2868 2867 2865 2865 2864 2864 2865 2867 2871 2875 2877 2876 2876 2873 2870 2864 2858
2880 2874 2874 2874 2861 2867 2874 2868 2866 2869 2869 2874 2879 2881 2879 2878 2877 2877 2875 2871 2868 2867 2863 2862 2860 2857 2854 2853 2853 2851 2850 2851 2854 2856 2860 2863 2865 2868 2868 2867 2864 2861 2855 2848
2858 2862 2855 2860 2859 2859 2860 2861 2862 2861 2860 2862 2864 2864 2864 2861 2863 2862 2861 2859 2855 2851 2850 2846 2845 2844 2840 2838 2837 2837 2836 2839 2846 2852 2855 2857 2857 2860 2860 2859 2856 2851 2846 2840
2847 2853 2846 2836 2841 2844 2842 2848 2848 2850 2850 2848 2850 2850 2849 2848 2846 2847 2847 2846 2844 2839 2836 2833 2830 2827 2827 2823 2823 2823 2825 2828 2835 2844 2849 2851 2851 2852 2852 2851 2849 2843 2837 2831
2839 2838 2835 2823 2834 2830 2831 2835 2835 2834 2833 2834 2834 2831 2830 2833 2832 2831 2828 2828 2828 2826 2822 2819 2815 2811 2810 2810 2809 2811 2814 2819 2826 2832 2840 2843 2844 2844 2843 2843 2841 2836 2829 2823